Torna al catalogo

CZ-3C DEB

AttivoGTO
NORAD 39342·DEBRIS·🇨🇳 China

Lanciato Oct 31, 2010 da Xichang Satellite Launch Center

Loading…

TLE

In scadenzaSource: Space-Track

Epoca: Sep 14, 2026, 11:56 UTC

1 39342U 10057G   26257.49788089 -.00000046  00000-0  10359-2 0  9990
2 39342  20.4152  69.5625 7193472 215.5289  43.0157  2.20688506104186

Traccia CZ-3C DEB in tempo reale con AllMySat

Download on the App Store